Location: Nairn
(57.5833°N, 3.8667°W)
Time: 02:15:29
(UTC+00:00)

Transit 2A - Pass Details

Date: 05 December 2020
Orbit: 598 x 960 km, 66.7° (Epoch: 20 January)

Event Time Altitude Azimuth Distance (km) Brightness Sun altitude
Rises 17:08:22 0° 222° (SW) 3,605 10.8 -11.5°
Reaches altitude 10° 17:10:58 10° 222° (SW) 2,637 9.9 -11.8°
Maximum altitude 17:17:09 85° 136° (SE) 895 6.3 -12.5°
Enters shadow 17:21:48 16° 47° (NE) 2,053 7.6 -13.1°
